Flag for Turkey Weather past 2 weeks in Bodrum, Turkey

Now
71 °F

Scattered clouds.


Feels Like: 74 °F
Forecast: 67 / 72 °F
Wind: 14 mph from South

Location: Bodrum

Current Time: Oct 23, 2014 at 9:59:11 AM

Latest Report: Oct 23, 2014 at 9:00 AM


Visibility: 13 mi

Pressure: 29.80 "Hg

Humidity: 69%

Dew point: 60 °F

Location of BodrumLocation

Historic Weather in Bodrum — Graph

°F

Bodrum temperature yesterday

Maximum temperature yesterday: 76 °F (at 12:00 PM)
Minimum temperature yesterday: 64 °F (at 12:00 AM)
Average temperature yesterday: 72 °F

Past Weeks' High & Low Weather Summary

 TemperatureHumidityPressure
High89 °F (Oct 8, 3:00 PM)88% (Oct 17, 12:00 AM)30.10 "Hg (Oct 17, 12:00 AM)
Low61 °F (Oct 20, 6:00 AM)15% (Oct 20, 1:00 PM)29.80 "Hg (Oct 23, 6:00 AM)
Average74 °F56%29.99 "Hg
* Reported Oct 8 6:00 AM — Oct 23 6:00 AM, Bodrum, Weather by CustomWeather, © 2014

Note: Actual official high and low records may vary slightly from our data, if they occured in-between our weather recording intervals... More about our weather records

Advertising

Bodrum weather history for previous 24 hours

 ConditionsComfort  
Time TempWeatherWind HumidityBarometerVisibility
6:00 AM
Oct 23
70 °FPassing clouds.8 mph74%29.80 "Hg12 mi
3:00 AM72 °FPassing clouds.14 mph67%29.83 "Hg12 mi
12:00 AM71 °FPassing clouds.15 mph66%29.87 "Hg12 mi
9:00 PM
Oct 22
71 °FPassing clouds.15 mph63%29.88 "Hg12 mi
8:00 PM72 °FPassing clouds.9 mph62%29.89 "Hg12 mi
7:00 PM72 °FPassing clouds.12 mph57%29.88 "Hg12 mi
6:00 PM73 °FPartly sunny.13 mph52%29.88 "Hg12 mi
5:00 PM75 °FScattered clouds.14 mph50%29.89 "Hg12 mi
4:00 PM76 °FScattered clouds.12 mph49%29.90 "Hg12 mi
3:00 PM74 °FScattered clouds.14 mph51%29.92 "Hg12 mi
2:00 PM74 °FScattered clouds.15 mph51%29.93 "Hg12 mi
1:00 PM74 °FPartly sunny.17 mph49%29.95 "Hg12 mi
12:00 PM76 °FScattered clouds.10 mph48%29.96 "Hg12 mi
11:00 AM72 °FScattered clouds.12 mph55%29.97 "Hg12 mi
10:00 AM71 °FScattered clouds.10 mph57%29.96 "Hg12 mi
9:00 AM69 °FScattered clouds.10 mph59%29.96 "Hg12 mi
Weather by CustomWeather, © 2014

See weather overviewHow to use our weather pages